Home > Weather > Freising > Past weeks

Flag for Germany Weather for the Past 2 Weeks in Freising, Bavaria, Germany

Now
25 °F

Clear.


Feels Like: 25 °F
Forecast: 33 / 46 °F
Wind: 1 mph from North

Location: Munich / Franz Josef Strauss Airport

Current Time: Feb 12, 2016 at 4:37:11 AM

Latest Report: Feb 12, 2016 at 3:20 AM


Visibility: 10 mi

Pressure: 29.71 "Hg

Humidity: 100%

Dew point: 25 °F

Location of FreisingLocation

Historic Weather in Freising — Graph

°F

Freising Temperature Yesterday

Maximum temperature yesterday: 43 °F (at 12:20 PM)
Minimum temperature yesterday: 27 °F (at 10:50 PM)
Average temperature yesterday: 36 °F

High & Low Weather Summary for the Past Weeks

 TemperatureHumidityPressure
High57 °F (Feb 1, 2:50 PM)100% (Jan 28, 7:20 PM)30.45 "Hg (Jan 28, 7:20 PM)
Low23 °F (Feb 12, 2:20 AM)47% (Jan 28, 11:20 AM)29.24 "Hg (Feb 9, 7:50 PM)
Average42 °F82%29.98 "Hg
* Reported Jan 28 3:20 AM — Feb 12 3:20 AM, Freising, Weather by CustomWeather, © 2016

Note: Actual official high and low records may vary slightly from our data, if they occured in-between our weather recording intervals... More about our weather records

Advertising

Freising Weather History for the Previous 24 Hours

 ConditionsComfort  
Time TempWeatherWind HumidityBarometerVisibility
3:20 AM
Fri, Feb 12
25 °FClear.1 mph100%29.71 "Hg10 mi
2:50 AM25 °FClear.1 mph100%29.71 "Hg10 mi
2:20 AM23 °FClear.2 mph100%29.71 "Hg10 mi
1:50 AM27 °FClear.3 mph100%29.71 "Hg10 mi
1:20 AM27 °FClear.2 mph100%29.71 "Hg10 mi
12:50 AM27 °FClear.1 mph100%29.71 "Hg10 mi
12:20 AM25 °FClear.2 mph100%29.71 "Hg10 mi
11:50 PM
Thu, Feb 11
27 °FClear.2 mph93%29.71 "Hg10 mi
10:50 PM27 °FClear.1 mph93%29.71 "Hg10 mi
10:20 PM28 °FClear.1 mph93%29.71 "Hg10 mi
9:50 PM28 °FClear.No wind86%29.71 "Hg10 mi
9:20 PM30 °FClear.2 mph80%29.71 "Hg10 mi
8:50 PM30 °FClear.1 mph86%29.71 "Hg10 mi
8:20 PM32 °FClear.5 mph75%29.71 "Hg10 mi
7:50 PM32 °FClear.1 mph80%29.71 "Hg10 mi
7:20 PM32 °FClear.2 mph69%29.71 "Hg10 mi
6:50 PM34 °FClear.1 mph70%29.71 "Hg10 mi
6:20 PM37 °FPassing clouds.3 mph60%29.71 "HgN/A
5:50 PM37 °FClear.3 mph60%29.71 "Hg10 mi
5:20 PM39 °FSunny.5 mph56%29.71 "Hg10 mi
4:50 PM41 °FPassing clouds.7 mph53%29.71 "HgN/A
4:20 PM41 °FPassing clouds.8 mph57%29.71 "HgN/A
3:50 PM41 °FPassing clouds.8 mph57%29.71 "HgN/A
3:20 PM43 °FPassing clouds.9 mph53%29.71 "HgN/A
2:50 PM43 °FPassing clouds.14 mph53%29.71 "HgN/A
2:20 PM43 °FPassing clouds.10 mph57%29.74 "HgN/A
1:50 PM41 °FPassing clouds.17 mph61%29.74 "HgN/A
1:20 PM41 °FScattered clouds.18 mph57%29.74 "HgN/A
12:50 PM41 °FPartly sunny.16 mph61%29.74 "HgN/A
12:20 PM43 °FPartly sunny.17 mph57%29.74 "HgN/A
11:50 AM41 °FBroken clouds.17 mph61%29.74 "HgN/A
11:20 AM39 °FBroken clouds.21 mph65%29.74 "HgN/A
10:50 AM39 °FBroken clouds.21 mph65%29.74 "HgN/A
10:20 AM37 °FBroken clouds.22 mph75%29.74 "HgN/A
9:50 AM37 °FBroken clouds.24 mph75%29.74 "HgN/A
9:20 AM36 °FLight snow. Broken clouds.22 mph81%29.74 "HgN/A
8:50 AM36 °FLight snow. Broken clouds.18 mph81%29.74 "HgN/A
8:20 AM34 °FSnow flurries. Broken clouds.20 mph87%29.74 "HgN/A
7:50 AM36 °FSleet. Broken clouds.21 mph75%29.71 "HgN/A
7:20 AM36 °FSleet. Passing clouds.23 mph75%29.71 "HgN/A
6:50 AM36 °FLight snow. Partly cloudy.23 mph75%29.71 "HgN/A
6:20 AM36 °FLight rain. Passing clouds.24 mph75%29.68 "HgN/A
5:50 AM36 °FLight rain. Passing clouds.22 mph75%29.68 "HgN/A
5:20 AM36 °FPartly cloudy.23 mph75%29.68 "HgN/A
4:20 AM34 °FPartly cloudy.25 mph87%29.68 "HgN/A
Weather by CustomWeather, © 2016

See weather overviewHow to use our weather pages